Time,TemperatureF,DewpointF,PressureIn,WindDirection,WindDirectionDegrees,WindSpeedMPH,WindSpeedGustMPH,Humidity,HourlyPrecipIn,Conditions,Clouds,dailyrainin,SoftwareType,DateUTC
2013-12-17 00:11:00,-999.0,-99.9,30.20,ENE,78,3.0,5.0,-999,-99.99,,,-99.99,,2013-12-17 05:11:00,
2013-12-17 00:22:00,-999.0,-99.9,30.20,ENE,64,2.0,5.0,-999,-99.99,,,-99.99,,2013-12-17 05:22:00,
2013-12-17 00:33:00,-999.0,-99.9,30.19,ENE,62,3.0,5.0,-999,-99.99,,,-99.99,,2013-12-17 05:33:00,
2013-12-17 00:42:00,-999.0,-99.9,30.19,ENE,73,3.0,8.0,-999,-99.99,,,-99.99,,2013-12-17 05:42:00,
2013-12-17 00:53:00,-999.0,-99.9,30.19,ENE,67,2.0,5.0,-999,-99.99,,,-99.99,,2013-12-17 05:53:00,
2013-12-17 01:11:00,-999.0,-99.9,30.19,ENE,69,3.0,6.0,-999,-99.99,,,-99.99,,2013-12-17 06:11:00,
2013-12-17 01:22:00,-999.0,-99.9,30.19,ENE,73,3.0,6.0,-999,-99.99,,,-99.99,,2013-12-17 06:22:00,
2013-12-17 01:42:00,-999.0,-99.9,30.19,East,83,5.0,8.0,-999,-99.99,,,-99.99,,2013-12-17 06:42:00,
2013-12-17 01:52:00,-999.0,-99.9,30.19,East,80,4.0,7.0,-999,-99.99,,,-99.99,,2013-12-17 06:52:00,
2013-12-17 02:02:00,-999.0,-99.9,30.19,East,84,3.0,5.0,-999,-99.99,,,-99.99,,2013-12-17 07:02:00,
2013-12-17 02:11:00,-999.0,-99.9,30.18,East,86,4.0,7.0,-999,-99.99,,,-99.99,,2013-12-17 07:11:00,
2013-12-17 02:22:00,-999.0,-99.9,30.19,ENE,77,5.0,8.0,-999,-99.99,,,-99.99,,2013-12-17 07:22:00,
2013-12-17 02:42:00,-999.0,-99.9,30.19,ENE,71,4.0,8.0,-999,-99.99,,,-99.99,,2013-12-17 07:42:00,
2013-12-17 03:02:00,-999.0,-99.9,30.19,East,79,4.0,8.0,-999,-99.99,,,-99.99,,2013-12-17 08:02:00,
2013-12-17 03:12:00,-999.0,-99.9,30.19,ENE,78,3.0,5.0,-999,-99.99,,,-99.99,,2013-12-17 08:12:00,
2013-12-17 03:22:00,-999.0,-99.9,30.18,ENE,72,3.0,6.0,-999,-99.99,,,-99.99,,2013-12-17 08:22:00,
2013-12-17 03:32:00,-999.0,-99.9,30.17,East,81,4.0,7.0,-999,-99.99,,,-99.99,,2013-12-17 08:32:00,
2013-12-17 03:52:00,33.0,-99.9,30.16,East,91,9.0,13.0,-999,-99.99,,,-99.99,,2013-12-17 08:52:00,
2013-12-17 09:22:00,44.0,-99.9,30.03,ESE,120,11.0,15.0,-999,-99.99,,,-99.99,,2013-12-17 14:22:00,
2013-12-17 10:22:00,46.0,-99.9,30.05,WSW,256,13.0,15.0,-999,-99.99,,,-99.99,,2013-12-17 15:22:00,
2013-12-17 11:23:00,44.0,-99.9,30.01,WSW,238,6.0,9.0,-999,-99.99,,,-99.99,,2013-12-17 16:23:00,
2013-12-17 12:53:00,44.0,-99.9,29.96,SW,236,6.0,7.0,-999,-99.99,,,-99.99,,2013-12-17 17:53:00,
2013-12-17 13:03:00,44.0,-99.9,29.96,SW,236,6.0,7.0,-999,-99.99,,,-99.99,,2013-12-17 18:03:00,
2013-12-17 13:12:00,44.0,-99.9,29.96,SW,236,6.0,7.0,-999,-99.99,,,-99.99,,2013-12-17 18:12:00,
2013-12-17 20:22:00,36.0,-99.9,29.96,North,357,8.0,15.0,-999,-99.99,,,-99.99,,2013-12-18 01:22:00,